Insider Stock Trading History of Webster Steven A


The following table details the trading activities (stock purchases, stock sales, and stock option exercises) reported to the Securities and Exchange Commission (SEC) by insider Webster Steven A since year 2005. The trader's CIK number is 1008023. At the time of this reporting, Webster Steven A is the of Gas Inc . (stock ticker symbol CRZO). See this page for all insider trading activities at Gas Inc .

Note that in the past WEBSTER STEVEN A also reported insider trading activities as an insider of the following companies:
Stock purchases, sales, and option exercises reported by insider Webster Steven A since 2005.
  Trade Date   Symbol Company Name (Issuer) Trade Type     Shares       Price ($)   Value ($)
2017-09-07 CRZO Gas Inc Buy 25,000 12.08 302,025
2017-09-08 CRZO Gas Inc Buy 50,000 11.52 575,800
2017-08-28 CRZO Gas Inc Buy 25,000 12.67 316,750
2017-08-29 CRZO Gas Inc Buy 50,000 11.86 593,100
2017-08-15 CRZO Gas Inc Buy 29,700 13.36 396,732
2017-08-16 CRZO Gas Inc Buy 47,200 13.16 621,104
2017-08-14 CRZO Gas Inc Buy 75,000 13.89 1,041,750
2017-05-16 CRZO Gas Inc Option Ex 6,400 .00 0
2017-03-08 CRZO Gas Inc Buy 10,000 28.70 287,010
2017-03-09 CRZO Gas Inc Buy 15,000 26.84 402,525
2017-03-02 CRZO Gas Inc Buy 25,000 31.25 781,350
2017-01-04 CPT Camden Property Trust Sale 1,320 85.22 112,490
2016-11-21 BAS Basic Energy Services Inc Sale 36,950 .45 16,664
2016-11-22 BAS Basic Energy Services Inc Sale 457,771 .53 240,329
2016-11-16 BAS Basic Energy Services Inc Sale 241,420 .33 80,151
2016-11-17 BAS Basic Energy Services Inc Sale 239,871 .33 78,197
2016-11-14 BAS Basic Energy Services Inc Sale 750,628 .36 270,976
2016-11-11 BAS Basic Energy Services Inc Sale 169,807 .40 68,092
2016-06-03 CRZO Gas Inc Option Ex 9,166 20.22 185,336
2016-05-17 CRZO Gas Inc Option Ex 15,566 10.11 157,372
2015-08-26 BAS Basic Energy Services Inc Buy 76,600 3.42 262,125
2015-08-25 BAS Basic Energy Services Inc Buy 10,000 3.50 34,970
2015-08-21 BAS Basic Energy Services Inc Buy 50,000 3.78 189,050
2015-08-20 BAS Basic Energy Services Inc Buy 50,000 4.12 205,750
2015-08-19 BAS Basic Energy Services Inc Buy 50,000 4.21 210,750
2015-08-17 BAS Basic Energy Services Inc Buy 100,000 5.26 525,600
2015-06-18 BAS Basic Energy Services Inc Buy 22,700 7.34 166,595
2015-06-19 BAS Basic Energy Services Inc Buy 125,800 7.25 911,546
2015-05-29 CRZO Gas Inc Option Ex 3,848 .00 0
2015-05-19 CRZO Gas Inc Option Ex 6,108 .00 0
2015-03-16 BAS Basic Energy Services Inc Buy 6,900 5.30 36,604
2014-12-12 HERO Hercules Offshore, Inc. Buy 150,000 1.13 169,499
2014-12-16 HERO Hercules Offshore, Inc. Buy 100,000 1.07 106,900
2014-06-27 HERO Hercules Offshore, Inc. Buy 50,000 4.00 199,950
2014-06-30 HERO Hercules Offshore, Inc. Buy 100,000 4.03 402,500
2014-06-23 HERO Hercules Offshore, Inc. Buy 50,000 4.06 202,999
2014-06-11 CRZO Gas Inc Option Ex 11,901 .00 0
2014-05-29 CRZO Gas Inc Option Ex 6,260 .00 0
2014-04-28 HERO Hercules Offshore, Inc. Buy 25,000 4.35 108,675
2014-03-31 HERO Hercules Offshore, Inc. Buy 50,000 4.56 227,950
2014-02-13 HERO Hercules Offshore, Inc. Buy 25,000 4.58 114,475
2014-02-14 HERO Hercules Offshore, Inc. Buy 25,000 4.60 114,975
2013-11-06 HERO Hercules Offshore, Inc. Buy 100,000 6.58 658,400
2013-07-30 BAS Basic Energy Services Inc Buy 15,800 11.33 179,014
2013-05-29 CRZO Gas Inc Option Ex 6,260 .00 0
2013-02-08 CRZO Gas Inc Option Ex 93,334 6.35 592,484
2012-11-16 BAS Basic Energy Services Inc Buy 20,000 8.96 179,140
2012-06-26 HERO Hercules Offshore, Inc. Buy 50,000 3.10 154,800
2012-06-26 BAS Basic Energy Services Inc Buy 25,000 8.70 217,450
2012-06-25 BAS Basic Energy Services Inc Buy 25,000 8.85 221,200
2012-06-20 HERO Hercules Offshore, Inc. Buy 25,000 3.45 86,200
2012-06-21 HERO Hercules Offshore, Inc. Buy 25,000 3.30 82,500
2012-06-13 BAS Basic Energy Services Inc Buy 75,000 9.50 712,350
2012-06-14 BAS Basic Energy Services Inc Buy 1,200 9.25 11,100
2012-05-15 BAS Basic Energy Services Inc Buy 50,000 12.47 623,700
2012-05-16 BAS Basic Energy Services Inc Buy 75,000 11.81 885,449
2012-05-17 BAS Basic Energy Services Inc Buy 50,000 10.75 537,550
2012-04-23 BAS Basic Energy Services Inc Buy 52,370 13.50 706,995
2012-04-25 BAS Basic Energy Services Inc Option Ex 55,000 5.38 295,900
2011-11-17 CRZO Gas Inc Option Ex 75,000 4.01 300,750
2011-09-09 BAS Basic Energy Services Inc Buy 50,000 19.75 987,500
2011-08-24 BAS Basic Energy Services Inc Buy 15,000 20.20 302,925
2011-08-22 BAS Basic Energy Services Inc Buy 10,000 19.00 190,040
2011-08-19 BAS Basic Energy Services Inc Buy 25,000 20.52 512,875
2010-12-14 GOK Geokinetics Inc Buy 7,000 .00 0
2010-08-11 BAS Basic Energy Services Inc Buy 30,000 8.50 255,120
2010-08-06 BAS Basic Energy Services Inc Buy 20,000 8.99 179,800
2010-03-01 BAS Basic Energy Services Inc Buy 5,600 9.29 52,040
2010-02-26 BAS Basic Energy Services Inc Buy 2,200 9.38 20,631
2010-01-26 CRZO Gas Inc Option Ex 115,000 3.71 426,765
2009-11-04 BAS Basic Energy Services Inc Buy 15,400 6.75 103,950
2009-11-05 BAS Basic Energy Services Inc Buy 35,000 6.64 232,365
2009-05-21 CRZO Gas Inc Option Ex 2,500 1.81 4,532
2009-03-10 GOK Geokinetics Inc Buy 25,000 2.07 51,825
2009-03-11 GOK Geokinetics Inc Buy 99,800 2.10 209,580
2009-03-09 BAS Basic Energy Services Inc Buy 20,000 5.50 109,940
2009-03-06 BAS Basic Energy Services Inc Buy 10,000 5.49 54,910
2009-03-05 BAS Basic Energy Services Inc Buy 20,000 5.55 111,080
2009-02-20 CPT Camden Property Trust Buy 15,000 19.83 297,495
2009-02-12 CPT Camden Property Trust Buy 3,500 22.25 77,875
2009-02-13 CPT Camden Property Trust Buy 25,000 22.13 553,300
2008-12-23 GW Grey Wolf Inc Option Ex 175,000 3.27 572,250
2008-11-21 HERO Hercules Offshore, Inc. Buy 50,000 3.33 166,450
2008-11-21 HERO Hercules Offshore, Inc. Buy 50,000 3.40 170,000
2008-11-21 CPT Camden Property Trust Buy 10,000 18.70 187,000
2008-11-20 CPT Camden Property Trust Buy 10,000 21.00 210,000
2008-11-12 HERO Hercules Offshore, Inc. Buy 23,556 4.80 113,068
2008-11-12 HERO Hercules Offshore, Inc. Buy 50,000 5.17 258,500
2008-11-10 HERO Hercules Offshore, Inc. Buy 50,480 6.15 310,351
2008-10-17 HERO Hercules Offshore, Inc. Buy 25,000 7.16 178,950
2008-10-17 HERO Hercules Offshore, Inc. Buy 25,000 7.16 178,950
2008-09-26 HERO Hercules Offshore, Inc. Buy 20,000 15.76 315,240
2008-09-25 HERO Hercules Offshore, Inc. Buy 30,846 16.14 497,731
2008-08-04 HERO Hercules Offshore, Inc. Buy 10,000 22.93 229,280
2008-06-30 EBTX Encore Bancshares Inc Buy 50,000 15.79 789,350
2008-03-25 HERO Hercules Offshore, Inc. Buy 100,000 23.56 2,356,300
2008-02-26 CKH Seacor Holdings Inc /new/ Option Ex 3,772 17.59 66,368
2008-02-06 HERO Hercules Offshore, Inc. Buy 57,664 22.88 1,319,467
2007-12-28 HERO Hercules Offshore, Inc. Buy 25,000 23.65 591,250
2007-12-20 HERO Hercules Offshore, Inc. Buy 60,000 23.41 1,404,600
2007-12-11 HERO Hercules Offshore, Inc. Buy 45,000 23.66 1,064,880
2007-12-03 HERO Hercules Offshore, Inc. Buy 42,522 24.38 1,036,813
2007-12-04 HERO Hercules Offshore, Inc. Buy 37,478 23.39 876,610
2007-11-15 EBTX Encore Bancshares Inc Buy 40,000 20.25 810,000
2007-11-12 HERO Hercules Offshore, Inc. Buy 80,000 25.19 2,015,520
2007-11-08 HERO Hercules Offshore, Inc. Buy 10,000 25.78 257,800
2007-09-07 HERO Hercules Offshore, Inc. Buy 20,000 25.43 508,560
2007-08-31 HERO Hercules Offshore, Inc. Buy 20,000 25.30 506,000
2007-08-28 BAS Basic Energy Services Inc Buy 20,000 20.25 405,000
2007-08-21 BAS Basic Energy Services Inc Buy 20,000 20.50 410,000
2007-08-16 HERO Hercules Offshore, Inc. Buy 8,356 25.25 210,989
2007-08-07 HERO Hercules Offshore, Inc. Buy 10,000 26.64 266,360
2007-07-18 EBTX Encore Bancshares Inc Buy 36,538 21.00 767,298
2006-04-24 HERO Hercules Offshore, Inc. Sale 78,379 34.38 2,694,670
2006-04-18 HERO Hercules Offshore, Inc. Sale 418,019 34.38 14,371,493

Insider trading activities including stock purchases, stock sales, and option exercises listed in the above table cannot be completely guaranteed as to their accuracy. For more information regarding the trades made by Webster Steven A ( of Gas Inc at the time of this reporting) see the Securities and Exchange Commission (SEC) website.